This is the latest recevied weather packets stored in our database for station/object VK3CG. If no packets are shown the sender has not sent any weather packets the latest 10 day(s).
| Time | Temp. | Humidity | Pressure | Rain* | Wind** | Luminosity | Snow |
|---|---|---|---|---|---|---|---|
| 1777864565 | 12.22° C | 62% | 1022.1 hPa | 0 mm | - | 56 W/m² | - |
| 1777863647 | 12.22° C | 62% | 1022.2 hPa | 0 mm | - | 77 W/m² | - |
| 1777862747 | 12.78° C | 62% | 1022.2 hPa | 0 mm | - | 79 W/m² | - |
| 1777861846 | 12.78° C | 61% | 1022.4 hPa | 0 mm | - | 176 W/m² | - |
| 1777860946 | 12.78° C | 60% | 1022.8 hPa | 0 mm | - | 146 W/m² | - |
| 1777860043 | 12.22° C | 62% | 1022.8 hPa | 0 mm | - | 258 W/m² | - |
| 1777859145 | 12.22° C | 61% | 1023.2 hPa | 0 mm | - | 146 W/m² | - |
| 1777858242 | 12.78° C | 63% | 1023.2 hPa | 0 mm | - | 155 W/m² | - |
| 1777857344 | 11.67° C | 62% | 1023.4 hPa | 0 mm | - | 141 W/m² | - |
| 1777856443 | 12.22° C | 62% | 1023.4 hPa | 0 mm | - | 120 W/m² | - |
| 1777855536 | 11.67° C | 64% | 1023.3 hPa | 0 mm | - | 633 W/m² | - |
| 1777854641 | 11.11° C | 66% | 1023.3 hPa | 0 mm | - | 200 W/m² | - |
| 1777853729 | 10.56° C | 67% | 1023.4 hPa | 0 mm | - | 141 W/m² | - |
| 1777852825 | 10.56° C | 68% | 1023.6 hPa | 0 mm | - | 207 W/m² | - |
| 1777851926 | 10° C | 69% | 1023.6 hPa | 0 mm | - | 81 W/m² | - |
| 1777851022 | 10° C | 69% | 1023.7 hPa | 0 mm | - | 79 W/m² | - |
| 1777850121 | 10° C | 70% | 1023.6 hPa | 0 mm | - | 139 W/m² | - |
| 1777849224 | 9.44° C | 70% | 1023.6 hPa | 0 mm | - | 69 W/m² | - |
| 1777848318 | 9.44° C | 70% | 1023.6 hPa | 0 mm | - | 65 W/m² | - |
| 1777847423 | 9.44° C | 70% | 1023.5 hPa | 0 mm | - | 60 W/m² | - |
| 1777846516 | 9.44° C | 70% | 1023.6 hPa | 0 mm | - | 65 W/m² | - |
| 1777845628 | 9.44° C | 69% | 1023.2 hPa | 0 mm | - | 25 W/m² | - |
| 1777844710 | 9.44° C | 70% | 1023 hPa | 0 mm | - | 26 W/m² | - |
| 1777843808 | 8.89° C | 70% | 1023.2 hPa | 0 mm | - | 19 W/m² | - |
| 1777842907 | 8.89° C | 71% | 1023.3 hPa | 0 mm | - | 5 W/m² | - |
* Rain latest hour (hover to see other rain measurements)
** Current wind speed in m/s (hover to see current wind gust speed)